When you browse on this site, cookies collect data to enhance your experience and personalize the content and advertising you see.
Visit our Privacy Policy to learn more. By continuing to use the site, you agree to this use of cookies and data.
  • In United Kingdom
  • List of Countries
  • For 7 days
  • Water Temperature
  • Satellite Maps
  • Weather Map
  • Weather Widgets
  • user-avatar
    Login

    Hourly Weather Skvira

    Today, 21 November, Wednesday

    Time Temperature Precipitation Wind Pressure Humidity
    00:00 -5°C° 0 mm 2 mps 750 mmHg 93%
    01:00 -5°C° 0 mm 2 mps 751 mmHg 93%
    02:00 -5°C° 0 mm 2 mps 750 mmHg 91%
    03:00 -5°C° 0 mm 2 mps 750 mmHg 91%
    04:00 -5°C° 0 mm 2 mps 750 mmHg 92%
    05:00 -5°C° 0 mm 2 mps 750 mmHg 93%
    06:00 -5°C° 0 mm 2 mps 750 mmHg 93%
    07:00 -6°C° 0 mm 3 mps 750 mmHg 93%
    08:00 -6°C° 0 mm 3 mps 750 mmHg 91%
    09:00 -5°C° 0 mm 3 mps 750 mmHg 89%
    10:00 -5°C° 0 mm 3 mps 750 mmHg 86%
    11:00 -4°C° 0 mm 3 mps 750 mmHg 84%
    12:00 -4°C° 0 mm 3 mps 750 mmHg 83%
    13:00 -2°C° 0 mm 3 mps 750 mmHg 82%
    14:00 -2°C° 0 mm 2 mps 750 mmHg 79%
    15:00 -2°C° 0 mm 2 mps 750 mmHg 81%
    16:00 -3°C° 0 mm 2 mps 750 mmHg 83%
    17:00 -3°C° 0 mm 2 mps 750 mmHg 85%
    18:00 -4°C° 0 mm 2 mps 750 mmHg 86%
    19:00 -4°C° 0 mm 2 mps 750 mmHg 87%
    20:00 -4°C° 0 mm 2 mps 750 mmHg 87%
    21:00 -4°C° 0 mm 2 mps 750 mmHg 88%
    22:00 -5°C° 0 mm 2 mps 750 mmHg 89%
    23:00 -3°C° 0 mm 1 mps 750 mmHg 91%

    Tomorrow, 22 November, Thursday

    Time Temperature Precipitation Wind Pressure Humidity
    00:00 -4°C° 0 mm 1 mps 750 mmHg 91%
    01:00 -6°C° 0 mm 2 mps 750 mmHg 92%
    02:00 -6°C° 0 mm 2 mps 750 mmHg 93%
    03:00 -6°C° 0 mm 2 mps 750 mmHg 93%
    04:00 -6°C° 0 mm 2 mps 750 mmHg 94%
    05:00 -6°C° 0 mm 2 mps 750 mmHg 94%
    06:00 -6°C° 0 mm 2 mps 750 mmHg 94%
    07:00 -6°C° 0 mm 2 mps 750 mmHg 94%
    08:00 -6°C° 0 mm 2 mps 750 mmHg 94%
    09:00 -5°C° 0 mm 2 mps 750 mmHg 89%
    10:00 -4°C° 0 mm 2 mps 750 mmHg 84%
    11:00 -3°C° 0 mm 2 mps 751 mmHg 79%
    12:00 -3°C° 0 mm 2 mps 750 mmHg 77%
    13:00 -2°C° 0 mm 2 mps 750 mmHg 75%
    14:00 -2°C° 0 mm 2 mps 750 mmHg 73%
    15:00 -3°C° 0 mm 2 mps 750 mmHg 76%
    16:00 -4°C° 0 mm 2 mps 750 mmHg 79%
    17:00 -5°C° 0 mm 2 mps 750 mmHg 82%
    18:00 -5°C° 0 mm 2 mps 750 mmHg 82%
    19:00 -5°C° 0 mm 2 mps 750 mmHg 82%
    20:00 -5°C° 0 mm 2 mps 750 mmHg 83%
    21:00 -5°C° 0 mm 2 mps 750 mmHg 83%
    22:00 -5°C° 0 mm 2 mps 750 mmHg 84%
    23:00 -7°C° 0 mm 3 mps 750 mmHg 84%

    Day after tomorrow, 23 November, Friday

    Time Temperature Precipitation Wind Pressure Humidity
    00:00 -7°C° 0 mm 3 mps 750 mmHg 85%
    01:00 -7°C° 0 mm 3 mps 750 mmHg 86%
    02:00 -7°C° 0 mm 3 mps 750 mmHg 87%
    03:00 -7°C° 0 mm 3 mps 750 mmHg 88%
    04:00 -7°C° 0 mm 3 mps 750 mmHg 89%
    05:00 -7°C° 0 mm 3 mps 751 mmHg 90%
    06:00 -7°C° 0 mm 2 mps 751 mmHg 91%
    07:00 -7°C° 0 mm 2 mps 751 mmHg 91%
    08:00 -7°C° 0 mm 2 mps 751 mmHg 92%
    09:00 -6°C° 0 mm 2 mps 752 mmHg 89%
    10:00 -5°C° 0 mm 2 mps 752 mmHg 85%
    11:00 -4°C° 0 mm 2 mps 753 mmHg 82%
    12:00 -3°C° 0 mm 2 mps 753 mmHg 80%
    13:00 -1°C° 0 mm 1 mps 753 mmHg 79%
    14:00 -1°C° 0 mm 1 mps 753 mmHg 77%
    15:00 -1°C° 0 mm 1 mps 753 mmHg 81%
    16:00 -2°C° 0 mm 1 mps 753 mmHg 85%
    17:00 -3°C° 0 mm 1 mps 753 mmHg 88%
    18:00 -3°C° 0 mm 1 mps 753 mmHg 89%
    19:00 -3°C° 0 mm 1 mps 753 mmHg 91%
    20:00 -6°C° 0 mm 2 mps 753 mmHg 92%
    21:00 -6°C° 0 mm 2 mps 753 mmHg 92%
    22:00 -6°C° 0 mm 2 mps 753 mmHg 93%
    23:00 -7°C° 0 mm 3 mps 753 mmHg 93%

    24 November, Saturday

    Time Temperature Precipitation Wind Pressure Humidity
    00:00 -8°C° 0 mm 3 mps 753 mmHg 93%
    01:00 -8°C° 0 mm 3 mps 752 mmHg 93%
    02:00 -8°C° 0 mm 3 mps 752 mmHg 93%
    03:00 -8°C° 0 mm 3 mps 752 mmHg 93%
    04:00 -8°C° 0 mm 3 mps 751 mmHg 92%
    05:00 -8°C° 0 mm 3 mps 751 mmHg 92%
    06:00 -9°C° 0 mm 3 mps 750 mmHg 90%
    07:00 -9°C° 0 mm 3 mps 750 mmHg 88%
    08:00 -9°C° 0 mm 3 mps 750 mmHg 87%
    09:00 -8°C° 0 mm 4 mps 750 mmHg 81%
    10:00 -7°C° 0 mm 4 mps 749 mmHg 76%
    11:00 -5°C° 0 mm 4 mps 749 mmHg 71%
    12:00 -4°C° 0 mm 4 mps 749 mmHg 70%
    13:00 -4°C° 0 mm 4 mps 748 mmHg 70%
    14:00 -3°C° 0 mm 4 mps 747 mmHg 69%
    15:00 -4°C° 0 mm 4 mps 747 mmHg 74%
    16:00 -5°C° 0 mm 4 mps 747 mmHg 78%
    17:00 -5°C° 0 mm 4 mps 746 mmHg 83%
    18:00 -5°C° 0 mm 4 mps 746 mmHg 85%
    19:00 -5°C° 0 mm 4 mps 746 mmHg 86%
    20:00 -5°C° 0 mm 4 mps 745 mmHg 88%
    21:00 -5°C° 0 mm 4 mps 745 mmHg 88%
    22:00 -5°C° 0 mm 4 mps 745 mmHg 88%
    23:00 -5°C° 0 mm 3 mps 745 mmHg 88%

    25 November, Sunday

    Time Temperature Precipitation Wind Pressure Humidity
    00:00 -5°C° 0 mm 3 mps 744 mmHg 88%
    01:00 -5°C° 0 mm 3 mps 744 mmHg 88%
    02:00 -5°C° 0 mm 3 mps 743 mmHg 87%
    03:00 -5°C° 0 mm 3 mps 743 mmHg 87%
    04:00 -5°C° 0 mm 3 mps 742 mmHg 87%
    05:00 -5°C° 0 mm 3 mps 742 mmHg 87%
    06:00 -5°C° 0.1 mm 3 mps 742 mmHg 88%
    07:00 -4°C° 0.1 mm 3 mps 742 mmHg 88%
    08:00 -4°C° 0.1 mm 3 mps 742 mmHg 88%
    09:00 -2°C° 0 mm 3 mps 741 mmHg 86%
    10:00 -1°C° 0 mm 3 mps 741 mmHg 83%
    11:00 0°C° 0 mm 3 mps 741 mmHg 81%
    12:00 0°C° 0 mm 3 mps 741 mmHg 82%
    13:00 +1°C° 0 mm 3 mps 741 mmHg 83%
    14:00 +1°C° 0 mm 3 mps 740 mmHg 83%
    15:00 0°C° 0 mm 3 mps 740 mmHg 86%
    16:00 0°C° 0 mm 3 mps 740 mmHg 88%
    17:00 -1°C° 0 mm 3 mps 740 mmHg 90%
    18:00 -1°C° 0 mm 3 mps 740 mmHg 91%
    19:00 -1°C° 0 mm 3 mps 740 mmHg 92%
    20:00 -1°C° 0 mm 3 mps 739 mmHg 92%
    21:00 -1°C° 0 mm 3 mps 739 mmHg 93%
    22:00 -1°C° 0 mm 2 mps 739 mmHg 93%
    23:00 -1°C° 0 mm 2 mps 739 mmHg 94%

    26 November, Monday

    Time Temperature Precipitation Wind Pressure Humidity
    00:00 -1°C° 0 mm 2 mps 739 mmHg 94%
    01:00 -1°C° 0 mm 2 mps 738 mmHg 94%
    02:00 -1°C° 0 mm 2 mps 738 mmHg 94%
    03:00 -1°C° 0 mm 2 mps 738 mmHg 94%
    04:00 -1°C° 0 mm 2 mps 738 mmHg 94%
    05:00 -1°C° 0 mm 2 mps 738 mmHg 94%
    06:00 -1°C° 0 mm 2 mps 738 mmHg 94%
    07:00 -1°C° 0 mm 2 mps 738 mmHg 94%
    08:00 -1°C° 0 mm 2 mps 738 mmHg 94%
    09:00 +1°C° 0 mm 2 mps 738 mmHg 93%
    10:00 +1°C° 0 mm 2 mps 738 mmHg 93%
    11:00 +2°C° 0 mm 2 mps 738 mmHg 92%
    12:00 +2°C° 0 mm 2 mps 738 mmHg 92%
    13:00 +1°C° 0 mm 3 mps 738 mmHg 92%
    14:00 +1°C° 0 mm 3 mps 738 mmHg 91%
    15:00 -1°C° 0 mm 4 mps 738 mmHg 91%
    16:00 -1°C° 0 mm 4 mps 738 mmHg 90%
    17:00 -2°C° 0 mm 5 mps 738 mmHg 90%
    18:00 -2°C° 0 mm 5 mps 739 mmHg 89%
    19:00 -4°C° 0 mm 6 mps 739 mmHg 87%
    20:00 -4°C° 0 mm 6 mps 739 mmHg 86%
    21:00 -5°C° 0 mm 6 mps 740 mmHg 85%
    22:00 -5°C° 0 mm 6 mps 740 mmHg 83%
    23:00 -7°C° 0 mm 7 mps 740 mmHg 82%
    Show more